H-2A R/B (28932 NORAD) Tracking and Keplerian Element Data

This shows tracking and keplerian element data for the satellite.

Feedback or suggestion? Click here.




ElementValue
Catalog28932
NameH-2A R/B
Epoch Orbit69905
Epoch Day348.92344322
Epoch Year2018
RAAN300.2897
Inclination98.2556
Eccentricity0.0088509
Argument of Perigee324.1354
Mean Anonmoly70.9448
Mean Motion14.91857482
Decay Rate1.62E-06
L11 28932U 06002B 18348.92344322 .00000162 00000-0 21453-4 0 9993
L22 28932 98.2556 300.2897 0088509 324.1354 70.9448 14.91857482699052

Live tracking and technical data element details for H-2A R/B (NORAD 28932). H-2A R/B can be tracked NOW for your location showing map with azimuth and elevation plus other details from your city location.

Track the satellite on the map from your city or location and see movement details for azimuth, elevation, latitude, longitude, range, height, and movement on the map or in text.







IsCatalogInMostPopularTable: catalog: 28932, numindb: 44
Update: records affected: 1



GetName: 28932 H-2A R/B

Hit Count: updated at: Sat, 15 Dec 2018 13:13:29 GMT